Flag for U.S.A. Weather past 2 weeks in Boulder, Colorado, U.S.A.

Now
59 °F

Drizzle. Mostly cloudy.


Feels Like: 57 °F
Forecast: 59 / 64 °F
Wind: 9 mph from North

Location: Broomfield / Jeffco

Current Time: Jul 30, 2014 at 1:19:57 PM

Latest Report: Jul 30, 2014 at 12:55 PM


Visibility: 4 mi

Pressure: 30.36 "Hg

Humidity: 100%

Dew point: 59 °F

Location of BoulderLocation

Historic Weather in Boulder — Graph

°F

Boulder temperature yesterday

Maximum temperature yesterday: 81 °F (at 11:50 AM)
Minimum temperature yesterday: 59 °F (at 11:15 PM)
Average temperature yesterday: 66 °F

Past Weeks' High & Low Weather Summary

 TemperatureHumidityPressure
High95 °F (Jul 21, 1:46 PM)100% (Jul 16, 3:55 AM)30.41 "Hg (Jul 16, 3:55 AM)
Low55 °F (Jul 16, 11:15 PM)12% (Jul 19, 10:55 AM)30.03 "Hg (Jul 18, 4:34 AM)
Average70 °F54%30.18 "Hg
* Reported Jul 15 11:47 AM — Jul 30 11:47 AM, Boulder, Weather by CustomWeather, © 2014

Note: Actual official high and low records may vary slightly from our data, if they occured in-between our weather recording intervals... More about our weather records

Advertising

Boulder weather history for previous 24 hours

 ConditionsComfort  
Time TempWeatherWind HumidityBarometerVisibility
11:47 AM
Jul 30
59 °FFog.7 mph100%30.36 "Hg2 mi
10:49 AM57 °FLight rain. Fog.8 mph100%30.36 "Hg1 mi
9:50 AM59 °FLight rain. Fog.9 mph100%30.35 "Hg1 mi
7:47 AM59 °FRain. Mostly cloudy.5 mph100%30.32 "Hg2 mi
6:47 AM57 °FRain. Low clouds.6 mph100%30.32 "Hg1 mi
5:55 AM57 °FHeavy rain. Overcast.7 mph100%30.30 "Hg3 mi
5:35 AM57 °FHeavy rain. Overcast.6 mph100%30.30 "Hg4 mi
5:14 AM59 °FHeavy rain. Low clouds.8 mph100%30.30 "Hg3 mi
4:55 AM59 °FLight rain. Mostly cloudy.8 mph100%30.29 "Hg4 mi
4:35 AM59 °FHeavy rain. Mostly cloudy.6 mph100%30.30 "Hg4 mi
4:14 AM57 °FLight rain. Overcast.7 mph100%30.29 "Hg5 mi
3:55 AM57 °FLight rain. Overcast.7 mph100%30.29 "Hg5 mi
3:34 AM57 °FLight rain. Mostly cloudy.6 mph100%30.29 "Hg5 mi
2:55 AM57 °FLight rain. Mostly cloudy.5 mph100%30.29 "Hg5 mi
2:35 AM57 °FDrizzle. Mostly cloudy.No wind100%30.29 "Hg4 mi
2:15 AM57 °FRain. Overcast.No wind100%30.29 "Hg4 mi
1:55 AM57 °FHeavy rain. Mostly cloudy.No wind100%30.29 "Hg3 mi
1:35 AM57 °FDrizzle. Overcast.No wind100%30.29 "Hg4 mi
1:15 AM57 °FDrizzle. Overcast.5 mph100%30.28 "Hg7 mi
12:54 AM59 °FDrizzle. Mostly cloudy.10 mph100%30.29 "Hg7 mi
12:35 AM59 °FDrizzle. Mostly cloudy.14 mph100%30.28 "Hg10 mi
12:15 AM59 °FRain. Mostly cloudy.10 mph100%30.28 "Hg7 mi
11:55 PM
Jul 29
59 °FRain. Low clouds.10 mph100%30.29 "Hg4 mi
11:34 PM59 °FRain. Mostly cloudy.14 mph100%30.29 "Hg4 mi
11:15 PM59 °FLight rain. Mostly cloudy.12 mph100%30.28 "Hg7 mi
9:46 PM63 °FLight rain. Mostly cloudy.6 mph94%30.29 "Hg10 mi
8:46 PM63 °FDrizzle. Broken clouds.5 mph88%30.26 "Hg10 mi
7:49 PM63 °FScattered showers. More clouds than sun.No wind88%30.26 "Hg10 mi
6:46 PM63 °FLight rain. More clouds than sun.9 mph88%30.25 "Hg10 mi
3:47 PM66 °FLight rain. Cloudy.13 mph78%30.22 "Hg8 mi
2:50 PM77 °FScattered showers. Cloudy.12 mph51%30.20 "Hg10 mi
1:45 PM79 °FScattered showers. Cloudy.6 mph45%30.21 "Hg20 mi
Weather by CustomWeather, © 2014

See weather overviewHow to use our weather pages